PST,Max TemperatureF,Mean TemperatureF,Min TemperatureF,Max Dew PointF,MeanDew PointF,Min DewpointF,Max Humidity, Mean Humidity, Min Humidity, Max Sea Level PressureIn, Mean Sea Level PressureIn, Min Sea Level PressureIn, Max VisibilityMiles, Mean VisibilityMiles, Min VisibilityMiles, Max Wind SpeedMPH, Mean Wind SpeedMPH, Max Gust SpeedMPH,PrecipitationIn, CloudCover, Events, WindDirDegrees
2011-12-1,63,58,54,44,33,24,57,40,22,30.01,29.86,29.72,10,10,10,20,13,23,0.00,6,Rain,293
2011-12-2,70,59,48,41,37,32,71,45,29,30.09,30.00,29.95,10,10,10,4,1,,0.00,3,Rain,200
2011-12-3,62,53,44,30,22,16,43,28,17,30.27,30.12,29.98,10,10,10,17,8,23,0.00,2,,320
2011-12-4,,,,,,,,,,30.29,30.21,30.13,,,,,,,0.00,,,-1
2011-12-5,61,50,38,23,17,14,38,25,16,30.41,30.29,30.16,10,10,10,20,6,,0.00,0,,337
2011-12-6,63,48,33,18,12,7,38,24,15,30.49,30.42,30.39,10,10,10,4,1,,0.00,0,,-1
2011-12-7,67,50,32,25,13,1,44,24,12,30.38,30.26,30.16,10,10,10,6,1,,0.00,0,,262
2011-12-8,67,51,35,23,17,8,41,27,13,30.21,30.15,30.10,10,10,10,4,2,,0.00,1,,-1
2011-12-9,70,52,33,27,20,9,37,24,15,30.26,30.19,30.15,10,10,10,6,1,,0.00,2,,225
2011-12-10,73,58,43,26,23,17,42,25,15,30.20,30.12,30.03,10,10,10,5,2,,0.00,2,,240
2011-12-11,,,,,,,,,,30.02,29.94,29.83,,,,,,,0.00,,,-1
2011-12-12,64,55,46,48,41,14,78,61,28,29.92,29.85,29.81,10,10,10,6,3,,0.01,4,Rain,109
2011-12-13,52,50,46,49,44,36,94,79,64,30.12,29.97,29.89,10,9,2,13,4,,0.09,6,Rain,258
2011-12-14,66,54,42,46,42,34,82,64,46,30.29,30.23,30.13,10,10,10,4,0,,0.00,0,,260
2011-12-15,68,57,46,45,40,35,68,52,38,30.26,30.15,30.06,10,10,9,6,4,,0.00,1,,262
2011-12-16,59,54,49,43,38,34,71,53,43,30.12,30.08,30.03,10,10,10,17,11,21,0.00,7,Rain,310
2011-12-17,65,56,46,40,38,36,72,50,34,30.18,30.12,30.07,10,10,10,4,1,,0.00,4,Rain,273
2011-12-18,,,,,,,,,,30.21,30.13,30.07,,,,,,,0.00,,,-1
2011-12-19,66,55,44,46,38,35,74,50,34,30.12,30.06,30.02,10,10,10,7,2,,0.00,1,,117
2011-12-20,66,56,47,42,34,29,78,42,26,30.10,30.04,29.98,10,10,10,7,3,,0.00,1,,280
2011-12-21,72,58,44,43,37,33,65,46,30,30.09,30.03,29.97,10,10,10,5,0,,0.00,0,,160
2011-12-22,62,52,42,37,21,9,72,34,13,30.40,30.29,30.09,10,10,10,16,6,,0.00,0,,282
2011-12-23,66,54,41,24,15,5,49,26,9,30.53,30.44,30.38,10,10,10,18,12,20,0.00,0,,315
2011-12-24,66,50,35,28,20,9,59,36,12,30.47,30.41,30.33,10,9,2,5,1,,0.00,0,,280
2011-12-25,69,51,33,27,21,14,56,39,12,30.44,30.35,30.28,10,6,2,,,,0.00,0,,-1
2011-12-26,68,50,32,32,24,18,100,42,17,30.35,30.29,30.25,10,9,3,,,,0.00,0,,-1
2011-12-27,66,50,34,31,26,22,70,44,21,30.30,30.26,30.22,10,10,10,5,2,,0.00,1,,243
2011-12-28,70,52,35,34,28,23,65,44,21,30.33,30.24,30.16,10,10,10,5,1,,0.00,0,,230
2011-12-29,73,54,36,37,30,24,70,46,19,30.17,30.09,30.02,10,10,9,4,0,,0.00,1,,195
2011-12-30,73,56,39,40,33,26,65,46,19,30.13,30.05,30.00,10,10,9,0,0,,0.00,0,,-1
2011-12-31,78,60,42,43,33,28,67,45,18,30.18,30.10,30.02,10,10,5,0,0,,0.00,0,,-1